QPF
0.01 0.01 0.01 0.01 0.01 0.01 0.01 0.00 0.00 0.01 0.00 0.00 0.00 0.00 0.00 0.00 0.00 0.00 0.00 0.00 0.00 0.00 0.01 0.01 0.02 0.03 0.03 0.03 0.03 0.02 0.01 0.01 0.01 0.01 0.01 0.01 0.02 0.01 0.01 0.01 0.01 0.01 0.01
0.01 0.01 0.01 0.01 0.00 0.00 0.00 0.00 0.00 0.00 0.00 0.00 0.00 0.00 0.00 0.00 0.00 0.00 0.00 0.00 0.00 0.00 0.00 0.01 0.01 0.02 0.03 0.03 0.03 0.03 0.02 0.01 0.01 0.01 0.01 0.01 0.02 0.02 0.01 0.01 0.01 0.02 0.02
0.00 0.00 0.00 0.00 0.00 0.00 0.00 0.00 0.00 0.00 0.00 0.00 0.00 0.00 0.00 0.00 0.00 0.00 0.00 0.00 0.00 0.00 0.00 0.01 0.01 0.01 0.02 0.03 0.04 0.04 0.03 0.02 0.02 0.01 0.01 0.01 0.02 0.02 0.02 0.02 0.02 0.02 0.02
0.00 0.00 0.00 0.00 0.00 0.00 0.00 0.00 0.00 0.00 0.00 0.00 0.00 0.00 0.00 0.00 0.00 0.00 0.00 0.00 0.00 0.00 0.00 0.01 0.01 0.01 0.01 0.02 0.03 0.04 0.04 0.03 0.03 0.04 0.04 0.03 0.03 0.04 0.04 0.03 0.02 0.02 0.02
0.00 0.00 0.00 0.00 0.00 0.00 0.00 0.00 0.00 0.00 0.00 0.00 0.00 0.00 0.00 0.01 0.01 0.01 0.01 0.01 0.01 0.01 0.01 0.01 0.01 0.01 0.01 0.01 0.02 0.04 0.04 0.05 0.07 0.10 0.09 0.06 0.05 0.05 0.06 0.05 0.04 0.03 0.03
0.00 0.00 0.00 0.00 0.00 0.00 0.00 0.00 0.00 0.00 0.00 0.00 0.00 0.00 0.00 0.00 0.01 0.01 0.01 0.01 0.01 0.01 0.01 0.01 0.01 0.01 0.01 0.01 0.01 0.02 0.04 0.05 0.05 0.06 0.09 0.09 0.06 0.05 0.07 0.08 0.06 0.05 0.05
0.00 0.00 0.00 0.00 0.00 0.00 0.00 0.00 0.00 0.00 0.00 0.00 0.00 0.00 0.00 0.00 0.00 0.00 0.00 0.00 0.00 0.00 0.01 0.01 0.01 0.01 0.01 0.01 0.01 0.01 0.02 0.04 0.05 0.06 0.05 0.06 0.06 0.04 0.05 0.08 0.08 0.07 0.06
0.00 0.00 0.00 0.00 0.00 0.00 0.00 0.00 0.00 0.00 0.00 0.00 0.01 0.01 0.00 0.00 0.00 0.00 0.00 0.00 0.00 0.00 0.00 0.00 0.00 0.01 0.01 0.01 0.01 0.01 0.01 0.02 0.03 0.05 0.05 0.04 0.04 0.04 0.05 0.08 0.09 0.08 0.07
0.00 0.00 0.00 0.00 0.00 0.00 0.00 0.00 0.00 0.00 0.00 0.00 0.00 0.01 0.01 0.00 0.00 0.00 0.00 0.00 0.00 0.00 0.00 0.00 0.00 0.00 0.00 0.00 0.00 0.00 0.00 0.01 0.01 0.04 0.06 0.06 0.05 0.04 0.05 0.07 0.10 0.10 0.09
0.00 0.00 0.00 0.00 0.00 0.00 0.00 0.00 0.00 0.00 0.00 0.00 0.00 0.00 0.00 0.00 0.00 0.00 0.00 0.00 0.00 0.00 0.00 0.00 0.00 0.00 0.00 0.00 0.00 0.00 0.00 0.00 0.01 0.02 0.04 0.05 0.06 0.07 0.07 0.07 0.09 0.11 0.10
0.00 0.00 0.00 0.00 0.00 0.00 0.00 0.00 0.00 0.00 0.00 0.00 0.00 0.00 0.00 0.00 0.00 0.00 0.00 0.00 0.00 0.00 0.00 0.00 0.00 0.00 0.00 0.00 0.00 0.00 0.00 0.00 0.01 0.02 0.03 0.03 0.05 0.07 0.09 0.10 0.09 0.10 0.10
0.00 0.00 0.00 0.00 0.00 0.00 0.00 0.00 0.00 0.00 0.00 0.00 0.00 0.00 0.00 0.00 0.00 0.00 0.01 0.00 0.00 0.00 0.00 0.00 0.00 0.00 0.01 0.01 0.01 0.00 0.00 0.00 0.01 0.01 0.02 0.02 0.03 0.04 0.06 0.10 0.10 0.10 0.11
0.00 0.00 0.00 0.00 0.00 0.00 0.00 0.00 0.00 0.00 0.00 0.00 0.00 0.00 0.00 0.00 0.00 0.00 0.01 0.01 0.00 0.00 0.00 0.00 0.00 0.00 0.01 0.01 0.01 0.01 0.01 0.00 0.01 0.01 0.01 0.01 0.02 0.03 0.04 0.07 0.09 0.10 0.12
0.00 0.00 0.00 0.00 0.00 0.00 0.00 0.00 0.00 0.00 0.00 0.00 0.00 0.00 0.00 0.00 0.00 0.00 0.00 0.01 0.01 0.01 0.00 0.00 0.00 0.01 0.01 0.01 0.01 0.01 0.00 0.00 0.01 0.01 0.01 0.01 0.01 0.01 0.04 0.07 0.06 0.06 0.07
0.00 0.00 0.00 0.00 0.00 0.00 0.00 0.00 0.00 0.00 0.00 0.00 0.00 0.00 0.00 0.00 0.00 0.00 0.00 0.01 0.02 0.01 0.01 0.00 0.00 0.00 0.00 0.01 0.02 0.01 0.01 0.01 0.01 0.01 0.01 0.01 0.01 0.01 0.05 0.09 0.06 0.05 0.06
0.00 0.00 0.00 0.00 0.00 0.00 0.00 0.00 0.00 0.00 0.00 0.00 0.00 0.00 0.00 0.00 0.00 0.00 0.00 0.00 0.01 0.01 0.01 0.00 0.00 0.00 0.00 0.00 0.01 0.01 0.01 0.01 0.01 0.01 0.02 0.02 0.01 0.02 0.06 0.10 0.07 0.04 0.05
0.00 0.00 0.00 0.00 0.00 0.00 0.00 0.00 0.00 0.00 0.00 0.00 0.00 0.00 0.00 0.00 0.00 0.00 0.00 0.00 0.00 0.01 0.02 0.01 0.00 0.00 0.01 0.01 0.00 0.01 0.01 0.01 0.01 0.01 0.02 0.02 0.02 0.03 0.06 0.10 0.08 0.05 0.05
0.00 0.00 0.00 0.00 0.00 0.00 0.00 0.00 0.00 0.00 0.00 0.00 0.00 0.00 0.00 0.00 0.00 0.00 0.00 0.00 0.00 0.01 0.02 0.02 0.01 0.01 0.01 0.01 0.01 0.01 0.01 0.02 0.02 0.02 0.02 0.02 0.02 0.03 0.06 0.10 0.09 0.05 0.05
0.00 0.00 0.00 0.00 0.00 0.00 0.00 0.00 0.00 0.00 0.00 0.00 0.00 0.00 0.00 0.00 0.00 0.00 0.00 0.00 0.01 0.01 0.02 0.02 0.02 0.02 0.01 0.01 0.01 0.01 0.02 0.03 0.03 0.03 0.02 0.02 0.03 0.04 0.06 0.08 0.07 0.04 0.03
0.00 0.00 0.00 0.00 0.00 0.00 0.00 0.00 0.00 0.00 0.00 0.00 0.00 0.00 0.00 0.00 0.00 0.01 0.01 0.01 0.01 0.01 0.01 0.01 0.02 0.02 0.02 0.01 0.01 0.01 0.03 0.04 0.04 0.03 0.03 0.03 0.03 0.03 0.05 0.06 0.04 0.03 0.02
0.00 0.00 0.00 0.00 0.00 0.00 0.00 0.00 0.00 0.00 0.00 0.00 0.00 0.00 0.00 0.00 0.00 0.01 0.01 0.01 0.01 0.01 0.02 0.02 0.02 0.01 0.01 0.02 0.02 0.02 0.04 0.05 0.03 0.02 0.03 0.04 0.03 0.04 0.04 0.03 0.03 0.03 0.03
0.00 0.00 0.00 0.00 0.00 0.00 0.00 0.00 0.00 0.00 0.00 0.00 0.00 0.00 0.00 0.00 0.00 0.00 0.01 0.01 0.01 0.02 0.02 0.03 0.02 0.02 0.02 0.02 0.03 0.04 0.05 0.05 0.04 0.03 0.04 0.04 0.03 0.03 0.03 0.02 0.03 0.03 0.04
0.00 0.00 0.00 0.00 0.00 0.00 0.00 0.00 0.00 0.00 0.00 0.00 0.00 0.00 0.00 0.00 0.00 0.00 0.00 0.01 0.01 0.01 0.01 0.02 0.03 0.02 0.03 0.04 0.06 0.05 0.05 0.04 0.04 0.03 0.03 0.03 0.02 0.02 0.03 0.03 0.03 0.03 0.03
0.00 0.00 0.00 0.00 0.00 0.00 0.00 0.00 0.01 0.00 0.00 0.00 0.00 0.00 0.00 0.00 0.00 0.01 0.01 0.01 0.00 0.00 0.00 0.01 0.02 0.02 0.03 0.05 0.07 0.07 0.06 0.05 0.04 0.03 0.03 0.04 0.03 0.03 0.03 0.03 0.03 0.03 0.03
0.00 0.00 0.00 0.00 0.00 0.00 0.00 0.00 0.01 0.00 0.00 0.00 0.00 0.00 0.00 0.00 0.01 0.01 0.01 0.01 0.01 0.00 0.01 0.01 0.01 0.02 0.03 0.05 0.06 0.06 0.06 0.06 0.04 0.03 0.03 0.03 0.03 0.03 0.03 0.03 0.03 0.04 0.04
0.00 0.00 0.00 0.00 0.00 0.00 0.00 0.00 0.01 0.01 0.01 0.00 0.00 0.00 0.00 0.01 0.01 0.01 0.01 0.02 0.02 0.01 0.01 0.01 0.01 0.02 0.03 0.04 0.05 0.05 0.05 0.06 0.05 0.04 0.03 0.03 0.03 0.03 0.03 0.03 0.03 0.04 0.03
MSLP
1021.67 1021.94 1022.19 1022.44 1022.67 1022.89 1023.08 1023.25 1023.38 1023.47 1023.53 1023.58 1023.63 1023.69 1023.79 1023.92 1024.07 1024.23 1024.38 1024.47 1024.49 1024.43 1024.27 1024.03 1023.73 1023.39 1023.04 1022.69 1022.34 1021.99 1021.62 1021.23 1020.79 1020.30 1019.75 1019.15 1018.51 1017.85 1017.16 1016.46 1015.76 1015.03 1014.30
1021.75 1022.00 1022.25 1022.49 1022.72 1022.94 1023.16 1023.35 1023.53 1023.67 1023.80 1023.90 1024.01 1024.12 1024.24 1024.39 1024.54 1024.70 1024.82 1024.90 1024.92 1024.85 1024.69 1024.47 1024.18 1023.85 1023.49 1023.13 1022.76 1022.38 1021.97 1021.53 1021.05 1020.50 1019.89 1019.24 1018.53 1017.80 1017.04 1016.28 1015.51 1014.73 1013.94
1021.82 1022.07 1022.31 1022.54 1022.76 1022.99 1023.22 1023.44 1023.65 1023.86 1024.04 1024.21 1024.38 1024.53 1024.69 1024.85 1025.00 1025.14 1025.24 1025.30 1025.29 1025.22 1025.07 1024.85 1024.57 1024.25 1023.91 1023.53 1023.14 1022.73 1022.28 1021.79 1021.24 1020.63 1019.96 1019.24 1018.47 1017.68 1016.87 1016.04 1015.22 1014.39 1013.55
1021.88 1022.14 1022.38 1022.61 1022.83 1023.05 1023.28 1023.52 1023.76 1024.00 1024.24 1024.46 1024.68 1024.88 1025.06 1025.23 1025.38 1025.50 1025.58 1025.61 1025.59 1025.51 1025.36 1025.16 1024.90 1024.60 1024.25 1023.88 1023.47 1023.02 1022.52 1021.97 1021.35 1020.68 1019.94 1019.16 1018.34 1017.49 1016.63 1015.76 1014.89 1014.01 1013.12
1021.93 1022.21 1022.47 1022.70 1022.92 1023.13 1023.35 1023.59 1023.83 1024.08 1024.34 1024.60 1024.84 1025.08 1025.28 1025.47 1025.61 1025.72 1025.78 1025.80 1025.77 1025.69 1025.55 1025.37 1025.14 1024.86 1024.53 1024.16 1023.73 1023.24 1022.70 1022.08 1021.40 1020.65 1019.85 1019.01 1018.14 1017.26 1016.36 1015.46 1014.55 1013.62 1012.66
1021.91 1022.24 1022.53 1022.78 1023.00 1023.21 1023.41 1023.62 1023.84 1024.07 1024.32 1024.58 1024.84 1025.09 1025.31 1025.50 1025.65 1025.76 1025.82 1025.84 1025.81 1025.75 1025.64 1025.49 1025.29 1025.05 1024.74 1024.38 1023.94 1023.42 1022.82 1022.15 1021.40 1020.59 1019.74 1018.85 1017.94 1017.02 1016.09 1015.16 1014.20 1013.22 1012.18
1021.78 1022.17 1022.51 1022.80 1023.05 1023.25 1023.43 1023.60 1023.77 1023.97 1024.19 1024.42 1024.67 1024.92 1025.14 1025.34 1025.50 1025.62 1025.69 1025.73 1025.72 1025.69 1025.62 1025.52 1025.38 1025.17 1024.90 1024.55 1024.11 1023.57 1022.93 1022.20 1021.40 1020.53 1019.63 1018.70 1017.76 1016.82 1015.87 1014.90 1013.90 1012.84 1011.70
1021.49 1021.96 1022.38 1022.73 1023.01 1023.23 1023.39 1023.53 1023.65 1023.80 1023.96 1024.16 1024.38 1024.61 1024.83 1025.03 1025.20 1025.34 1025.44 1025.50 1025.53 1025.54 1025.53 1025.48 1025.40 1025.25 1025.02 1024.69 1024.25 1023.70 1023.04 1022.27 1021.42 1020.52 1019.57 1018.62 1017.65 1016.69 1015.71 1014.71 1013.65 1012.51 1011.27
1021.01 1021.58 1022.09 1022.52 1022.86 1023.11 1023.29 1023.40 1023.50 1023.59 1023.71 1023.86 1024.04 1024.25 1024.46 1024.66 1024.84 1025.00 1025.12 1025.22 1025.29 1025.35 1025.39 1025.40 1025.37 1025.28 1025.10 1024.80 1024.38 1023.83 1023.15 1022.36 1021.48 1020.55 1019.58 1018.60 1017.63 1016.64 1015.64 1014.60 1013.48 1012.26 1010.90
1020.35 1021.01 1021.63 1022.16 1022.59 1022.90 1023.11 1023.24 1023.33 1023.39 1023.48 1023.59 1023.74 1023.93 1024.13 1024.33 1024.52 1024.69 1024.83 1024.95 1025.06 1025.15 1025.24 1025.30 1025.32 1025.28 1025.14 1024.88 1024.48 1023.94 1023.26 1022.47 1021.58 1020.63 1019.65 1018.66 1017.67 1016.68 1015.65 1014.57 1013.39 1012.09 1010.63
1019.53 1020.29 1021.01 1021.65 1022.19 1022.59 1022.87 1023.04 1023.15 1023.23 1023.30 1023.41 1023.55 1023.72 1023.92 1024.12 1024.31 1024.48 1024.63 1024.76 1024.88 1024.99 1025.10 1025.19 1025.25 1025.24 1025.14 1024.91 1024.54 1024.01 1023.35 1022.56 1021.67 1020.72 1019.74 1018.76 1017.76 1016.76 1015.72 1014.60 1013.37 1012.00 1010.47
1018.61 1019.45 1020.27 1021.02 1021.67 1022.17 1022.55 1022.80 1022.97 1023.09 1023.19 1023.32 1023.47 1023.66 1023.86 1024.06 1024.25 1024.42 1024.56 1024.68 1024.79 1024.90 1025.00 1025.10 1025.16 1025.17 1025.08 1024.88 1024.53 1024.03 1023.38 1022.60 1021.73 1020.80 1019.83 1018.85 1017.86 1016.86 1015.81 1014.67 1013.41 1012.00 1010.42
1017.64 1018.54 1019.44 1020.29 1021.04 1021.65 1022.13 1022.49 1022.74 1022.94 1023.11 1023.29 1023.49 1023.71 1023.93 1024.15 1024.34 1024.50 1024.62 1024.72 1024.80 1024.88 1024.96 1025.03 1025.08 1025.08 1024.99 1024.79 1024.45 1023.97 1023.34 1022.59 1021.73 1020.82 1019.88 1018.92 1017.94 1016.95 1015.90 1014.76 1013.50 1012.08 1010.48
1016.68 1017.62 1018.58 1019.49 1020.32 1021.04 1021.62 1022.08 1022.44 1022.73 1023.00 1023.26 1023.53 1023.80 1024.07 1024.32 1024.52 1024.68 1024.79 1024.85 1024.90 1024.93 1024.96 1024.99 1025.01 1024.98 1024.87 1024.67 1024.33 1023.85 1023.24 1022.51 1021.68 1020.79 1019.87 1018.94 1017.99 1017.01 1015.98 1014.86 1013.62 1012.22 1010.65
1015.76 1016.72 1017.70 1018.66 1019.55 1020.33 1021.00 1021.56 1022.02 1022.43 1022.80 1023.16 1023.52 1023.88 1024.21 1024.50 1024.74 1024.90 1025.00 1025.05 1025.05 1025.04 1025.02 1025.00 1024.97 1024.90 1024.76 1024.53 1024.19 1023.71 1023.11 1022.39 1021.58 1020.72 1019.82 1018.91 1017.99 1017.04 1016.05 1014.97 1013.77 1012.42 1010.92
1014.90 1015.86 1016.85 1017.82 1018.74 1019.56 1020.29 1020.93 1021.49 1022.00 1022.48 1022.94 1023.40 1023.85 1024.26 1024.62 1024.91 1025.10 1025.21 1025.25 1025.24 1025.19 1025.13 1025.06 1024.98 1024.86 1024.69 1024.43 1024.07 1023.58 1022.97 1022.26 1021.47 1020.63 1019.76 1018.87 1017.98 1017.07 1016.11 1015.08 1013.94 1012.68 1011.27
1014.13 1015.08 1016.05 1017.01 1017.93 1018.77 1019.53 1020.22 1020.85 1021.44 1022.01 1022.58 1023.14 1023.69 1024.19 1024.63 1024.98 1025.22 1025.37 1025.43 1025.42 1025.36 1025.28 1025.17 1025.05 1024.90 1024.69 1024.40 1024.01 1023.51 1022.90 1022.19 1021.40 1020.57 1019.71 1018.85 1017.98 1017.10 1016.19 1015.22 1014.16 1012.98 1011.68
1013.43 1014.37 1015.32 1016.26 1017.15 1017.99 1018.76 1019.48 1020.15 1020.80 1021.45 1022.10 1022.75 1023.38 1023.98 1024.50 1024.92 1025.24 1025.44 1025.55 1025.56 1025.52 1025.44 1025.33 1025.19 1025.01 1024.77 1024.46 1024.04 1023.53 1022.90 1022.19 1021.40 1020.57 1019.73 1018.88 1018.04 1017.19 1016.31 1015.40 1014.40 1013.32 1012.13
1012.79 1013.72 1014.66 1015.57 1016.44 1017.26 1018.02 1018.75 1019.44 1020.13 1020.83 1021.54 1022.26 1022.97 1023.64 1024.24 1024.75 1025.14 1025.42 1025.58 1025.65 1025.65 1025.60 1025.50 1025.36 1025.18 1024.93 1024.60 1024.18 1023.65 1023.02 1022.30 1021.51 1020.69 1019.85 1019.01 1018.17 1017.34 1016.50 1015.63 1014.70 1013.69 1012.60
1012.20 1013.14 1014.06 1014.95 1015.79 1016.59 1017.34 1018.06 1018.76 1019.47 1020.20 1020.95 1021.72 1022.48 1023.21 1023.88 1024.47 1024.93 1025.29 1025.53 1025.67 1025.72 1025.72 1025.66 1025.54 1025.37 1025.14 1024.81 1024.39 1023.86 1023.24 1022.53 1021.75 1020.93 1020.09 1019.26 1018.43 1017.61 1016.79 1015.94 1015.05 1014.11 1013.09
1011.66 1012.59 1013.50 1014.38 1015.21 1015.99 1016.72 1017.43 1018.13 1018.84 1019.58 1020.35 1021.15 1021.94 1022.72 1023.45 1024.09 1024.63 1025.05 1025.37 1025.58 1025.71 1025.76 1025.76 1025.69 1025.56 1025.35 1025.05 1024.66 1024.16 1023.55 1022.86 1022.10 1021.30 1020.48 1019.65 1018.82 1018.01 1017.19 1016.35 1015.49 1014.58 1013.62
1011.15 1012.07 1012.97 1013.83 1014.65 1015.42 1016.14 1016.84 1017.54 1018.24 1018.99 1019.76 1020.57 1021.38 1022.19 1022.95 1023.64 1024.23 1024.72 1025.11 1025.39 1025.59 1025.72 1025.78 1025.77 1025.69 1025.54 1025.29 1024.94 1024.49 1023.93 1023.28 1022.56 1021.79 1020.99 1020.17 1019.36 1018.54 1017.72 1016.88 1016.02 1015.12 1014.19
1010.68 1011.58 1012.46 1013.30 1014.10 1014.86 1015.57 1016.26 1016.95 1017.66 1018.39 1019.17 1019.97 1020.80 1021.62 1022.40 1023.12 1023.76 1024.30 1024.75 1025.10 1025.37 1025.57 1025.70 1025.76 1025.76 1025.67 1025.49 1025.21 1024.83 1024.34 1023.76 1023.10 1022.38 1021.61 1020.82 1020.01 1019.20 1018.37 1017.52 1016.65 1015.76 1014.83
1010.28 1011.13 1011.96 1012.78 1013.55 1014.29 1014.99 1015.67 1016.35 1017.05 1017.79 1018.56 1019.37 1020.19 1021.02 1021.82 1022.57 1023.24 1023.83 1024.32 1024.74 1025.07 1025.33 1025.53 1025.67 1025.74 1025.73 1025.64 1025.45 1025.16 1024.76 1024.26 1023.67 1023.02 1022.30 1021.55 1020.77 1019.96 1019.13 1018.27 1017.39 1016.49 1015.56
1010.00 1010.76 1011.53 1012.29 1013.02 1013.72 1014.40 1015.07 1015.74 1016.44 1017.17 1017.94 1018.75 1019.58 1020.42 1021.23 1022.00 1022.70 1023.32 1023.86 1024.32 1024.71 1025.04 1025.30 1025.51 1025.66 1025.73 1025.73 1025.63 1025.44 1025.14 1024.73 1024.24 1023.66 1023.01 1022.31 1021.56 1020.77 1019.95 1019.09 1018.21 1017.30 1016.38
1009.88 1010.54 1011.22 1011.89 1012.56 1013.22 1013.86 1014.50 1015.15 1015.84 1016.57 1017.34 1018.15 1019.00 1019.84 1020.67 1021.46 1022.18 1022.83 1023.41 1023.91 1024.34 1024.72 1025.04 1025.32 1025.53 1025.69 1025.77 1025.76 1025.66 1025.46 1025.15 1024.74 1024.24 1023.67 1023.02 1022.31 1021.56 1020.76 1019.92 1019.05 1018.16 1017.25
Thickness
5661 5660 5659 5657 5657 5656 5656 5655 5655 5654 5653 5652 5651 5651 5650 5648 5647 5645 5643 5640 5639 5638 5638 5637 5636 5636 5635 5634 5633 5632 5631 5630 5629 5628 5628 5627 5627 5627 5626 5626 5626 5626 5626
5655 5654 5653 5651 5651 5650 5649 5649 5649 5648 5647 5646 5645 5644 5643 5641 5640 5638 5636 5634 5632 5630 5629 5628 5628 5627 5626 5625 5624 5623 5622 5621 5620 5620 5619 5618 5618 5618 5617 5617 5617 5617 5617
5648 5647 5646 5645 5644 5643 5642 5642 5642 5641 5640 5639 5638 5637 5636 5634 5633 5631 5629 5627 5626 5623 5621 5619 5618 5617 5617 5616 5615 5614 5613 5612 5611 5610 5610 5609 5608 5608 5608 5607 5607 5607 5607
5641 5640 5639 5638 5637 5636 5636 5635 5635 5634 5634 5633 5632 5630 5629 5627 5626 5624 5622 5619 5617 5615 5613 5611 5609 5607 5606 5606 5605 5604 5603 5602 5601 5600 5600 5599 5598 5598 5597 5596 5596 5596 5596
5634 5634 5632 5630 5629 5629 5628 5627 5627 5627 5626 5625 5624 5623 5622 5620 5618 5616 5614 5611 5608 5606 5605 5603 5600 5598 5597 5595 5594 5593 5592 5591 5591 5590 5589 5589 5588 5587 5586 5585 5585 5585 5585
5627 5626 5625 5623 5622 5622 5621 5620 5619 5618 5617 5616 5616 5616 5615 5614 5611 5609 5606 5603 5600 5598 5595 5594 5592 5590 5587 5585 5583 5582 5581 5580 5580 5579 5578 5577 5576 5575 5574 5574 5574 5574 5574
5619 5618 5617 5616 5615 5615 5613 5613 5612 5610 5609 5608 5609 5610 5610 5607 5605 5601 5598 5595 5592 5589 5586 5584 5582 5580 5578 5576 5573 5571 5570 5569 5568 5567 5566 5566 5565 5563 5563 5562 5562 5562 5562
5612 5611 5610 5609 5607 5606 5605 5604 5603 5602 5600 5598 5598 5601 5603 5603 5599 5594 5590 5586 5583 5580 5577 5574 5572 5570 5568 5566 5564 5561 5558 5557 5556 5556 5555 5553 5552 5551 5551 5550 5550 5550 5549
5604 5603 5602 5601 5600 5599 5597 5595 5594 5593 5591 5588 5586 5586 5588 5591 5589 5588 5583 5578 5574 5570 5567 5565 5562 5560 5557 5555 5553 5550 5547 5545 5544 5543 5542 5541 5540 5539 5538 5537 5537 5537 5537
5597 5595 5594 5593 5592 5590 5589 5587 5585 5583 5582 5580 5577 5573 5571 5569 5569 5575 5576 5570 5565 5561 5557 5555 5553 5550 5547 5545 5542 5539 5536 5534 5532 5531 5530 5528 5527 5526 5526 5525 5524 5524 5524
5589 5587 5586 5585 5583 5582 5580 5578 5575 5574 5572 5570 5568 5564 5561 5558 5556 5556 5562 5562 5558 5553 5548 5545 5542 5540 5537 5534 5531 5528 5525 5523 5521 5519 5518 5516 5515 5514 5514 5513 5513 5512 5512
5582 5580 5578 5577 5575 5573 5571 5568 5566 5564 5562 5560 5557 5554 5551 5548 5546 5543 5545 5547 5547 5545 5540 5536 5533 5530 5526 5523 5521 5517 5515 5513 5511 5509 5507 5505 5504 5503 5503 5503 5502 5501 5501
5576 5573 5571 5569 5567 5564 5561 5559 5557 5555 5552 5549 5546 5543 5539 5536 5532 5530 5529 5531 5533 5534 5533 5529 5525 5521 5517 5514 5511 5508 5506 5504 5501 5499 5497 5495 5494 5494 5493 5493 5492 5491 5492
5570 5566 5563 5561 5558 5556 5553 5550 5548 5545 5542 5538 5535 5532 5529 5525 5521 5518 5516 5515 5519 5525 5525 5522 5518 5513 5508 5504 5501 5498 5498 5495 5493 5491 5489 5487 5486 5485 5484 5483 5483 5482 5483
5561 5558 5555 5553 5550 5547 5544 5541 5538 5535 5532 5528 5525 5522 5519 5515 5511 5508 5504 5501 5500 5507 5515 5514 5508 5504 5499 5495 5492 5490 5489 5488 5485 5483 5481 5479 5478 5477 5476 5475 5475 5474 5475
5553 5550 5547 5544 5541 5538 5535 5532 5529 5525 5522 5519 5515 5513 5509 5506 5503 5498 5494 5491 5488 5488 5494 5499 5496 5493 5489 5487 5484 5482 5481 5480 5479 5476 5474 5472 5471 5470 5469 5469 5469 5468 5468
5544 5542 5539 5536 5533 5529 5526 5523 5520 5516 5513 5510 5507 5504 5500 5497 5493 5490 5486 5483 5480 5478 5481 5487 5485 5483 5481 5479 5478 5476 5474 5473 5472 5469 5466 5465 5464 5463 5462 5462 5462 5462 5463
5536 5533 5530 5527 5523 5520 5517 5514 5511 5508 5505 5502 5499 5495 5492 5488 5484 5481 5478 5475 5473 5470 5470 5474 5476 5474 5472 5470 5469 5468 5467 5466 5464 5462 5460 5458 5457 5456 5456 5455 5456 5456 5457
5527 5523 5521 5518 5514 5511 5508 5505 5502 5499 5497 5493 5490 5486 5483 5479 5476 5473 5470 5467 5465 5463 5462 5462 5465 5464 5463 5462 5461 5461 5459 5458 5457 5456 5454 5452 5452 5451 5450 5450 5450 5450 5451
5517 5514 5511 5508 5505 5501 5498 5496 5493 5491 5488 5485 5481 5477 5474 5470 5467 5464 5461 5459 5457 5456 5455 5454 5455 5455 5455 5453 5452 5452 5453 5452 5451 5450 5447 5446 5446 5445 5446 5445 5445 5445 5446
5507 5504 5501 5498 5495 5492 5489 5487 5484 5481 5479 5476 5472 5468 5464 5460 5457 5454 5451 5450 5448 5447 5447 5446 5447 5447 5447 5445 5443 5442 5442 5443 5444 5443 5441 5441 5441 5441 5441 5440 5439 5440 5441
5496 5494 5491 5488 5485 5483 5479 5476 5474 5472 5469 5466 5463 5459 5455 5452 5448 5445 5443 5440 5438 5437 5438 5437 5438 5437 5438 5435 5433 5432 5431 5433 5436 5436 5433 5435 5435 5435 5434 5434 5433 5433 5434
5486 5484 5481 5479 5476 5473 5469 5467 5464 5463 5460 5457 5453 5450 5447 5443 5440 5438 5436 5433 5431 5429 5427 5427 5428 5428 5427 5425 5424 5424 5423 5422 5424 5425 5425 5429 5429 5429 5428 5428 5428 5428 5429
5475 5473 5470 5468 5465 5463 5460 5457 5455 5453 5451 5447 5444 5441 5437 5435 5432 5429 5428 5427 5426 5424 5422 5420 5420 5420 5418 5417 5415 5414 5415 5416 5418 5418 5416 5420 5423 5422 5423 5423 5423 5423 5424
5464 5462 5460 5457 5455 5453 5450 5447 5444 5443 5440 5438 5435 5431 5428 5426 5424 5421 5420 5420 5420 5419 5416 5414 5413 5412 5411 5410 5408 5408 5409 5409 5413 5415 5410 5410 5414 5416 5418 5419 5419 5418 5419
5452 5450 5448 5446 5444 5442 5439 5436 5433 5432 5430 5428 5426 5423 5419 5417 5416 5413 5412 5412 5412 5412 5410 5410 5409 5408 5407 5406 5403 5402 5401 5401 5403 5406 5405 5403 5405 5405 5411 5414 5413 5413 5413